TimeCST,TemperatureF,Dew PointF,Humidity,Sea Level PressureIn,VisibilityMPH,Wind Direction,Wind SpeedMPH,Gust SpeedMPH,PrecipitationIn,Events,Conditions,WindDirDegrees,DateUTC
12:56 AM,72.0,63.0,73,29.92,10.0,SSE,21.9,26.5,N/A,,Overcast,160,2013-03-09 06:56:00
1:56 AM,72.0,63.9,76,29.88,10.0,SSE,17.3,28.8,N/A,,Overcast,160,2013-03-09 07:56:00
2:56 AM,72.0,63.0,73,29.86,10.0,South,23.0,27.6,N/A,,Overcast,170,2013-03-09 08:56:00
3:56 AM,70.9,63.0,76,29.83,10.0,South,23.0,28.8,N/A,,Mostly Cloudy,170,2013-03-09 09:56:00
4:56 AM,70.0,63.9,81,29.81,10.0,SSE,18.4,-,N/A,,Scattered Clouds,160,2013-03-09 10:56:00
5:56 AM,69.8,64.4,83,29.85,10.0,SSE,19.6,-,N/A,,Clear,160,2013-03-09 11:56:00
6:56 AM,68.9,63.0,81,29.84,10.0,SSE,17.3,-,N/A,,Clear,160,2013-03-09 12:56:00
7:56 AM,70.0,63.9,81,29.84,9.0,SSE,19.6,-,N/A,,Clear,160,2013-03-09 13:56:00
8:56 AM,73.9,63.9,71,29.84,9.0,South,21.9,28.8,N/A,,Partly Cloudy,170,2013-03-09 14:56:00
9:56 AM,77.9,63.9,62,29.81,8.0,South,23.0,33.4,N/A,,Clear,170,2013-03-09 15:56:00
10:56 AM,81.9,63.9,54,29.81,10.0,SSE,19.6,-,N/A,,Clear,160,2013-03-09 16:56:00
11:56 AM,84.9,63.0,48,29.77,10.0,South,21.9,-,N/A,,Clear,170,2013-03-09 17:56:00
12:56 PM,88.9,63.0,42,29.72,10.0,SSE,18.4,26.5,N/A,,Clear,160,2013-03-09 18:56:00
1:56 PM,90.9,61.9,38,29.68,10.0,SSE,13.8,-,N/A,,Clear,160,2013-03-09 19:56:00
2:56 PM,92.8,59.0,32,29.63,10.0,SSE,15.0,21.9,N/A,,Clear,160,2013-03-09 20:56:00
3:56 PM,92.8,56.8,30,29.59,10.0,SSE,11.5,23.0,N/A,,Clear,150,2013-03-09 21:56:00
4:56 PM,92.8,56.8,30,29.57,10.0,SE,20.7,25.3,N/A,,Clear,140,2013-03-09 22:56:00
5:56 PM,90.9,59.0,34,29.56,10.0,SE,15.0,-,N/A,,Clear,140,2013-03-09 23:56:00
6:56 PM,84.9,63.9,49,29.59,7.0,SE,23.0,29.9,N/A,,Clear,140,2013-03-10 00:56:00
7:56 PM,79.9,63.9,58,29.60,7.0,SE,19.6,26.5,N/A,,Clear,130,2013-03-10 01:56:00
8:56 PM,75.9,63.9,66,29.62,8.0,SE,18.4,33.4,N/A,,Clear,140,2013-03-10 02:56:00
9:56 PM,73.9,63.9,71,29.61,9.0,SE,24.2,-,N/A,,Clear,140,2013-03-10 03:56:00
10:56 PM,72.0,63.9,76,29.60,10.0,SSE,21.9,-,N/A,,Clear,150,2013-03-10 04:56:00
11:56 PM,70.9,63.9,78,29.60,9.0,SSE,20.7,-,N/A,,Clear,160,2013-03-10 05:56:00